TimeCDT,TemperatureF,Dew PointF,Humidity,Sea Level PressureIn,VisibilityMPH,Wind Direction,Wind SpeedMPH,Gust SpeedMPH,PrecipitationIn,Events,Conditions,WindDirDegrees,DateUTC
12:53 AM,60.1,51.1,72,30.22,10.0,Calm,Calm,-,N/A,,Clear,0,2013-10-14 05:53:00
1:53 AM,64.9,48.0,54,30.21,10.0,East,5.8,-,N/A,,Clear,80,2013-10-14 06:53:00
2:53 AM,63.0,46.0,54,30.21,10.0,Calm,Calm,-,N/A,,Clear,0,2013-10-14 07:53:00
3:53 AM,64.0,45.0,50,30.19,10.0,Variable,4.6,-,N/A,,Clear,0,2013-10-14 08:53:00
4:53 AM,63.0,45.0,52,30.19,10.0,East,3.5,-,N/A,,Clear,90,2013-10-14 09:53:00
5:53 AM,57.9,48.0,70,30.19,10.0,Calm,Calm,-,N/A,,Clear,0,2013-10-14 10:53:00
6:53 AM,57.0,48.9,74,30.19,10.0,Calm,Calm,-,N/A,,Clear,0,2013-10-14 11:53:00
7:53 AM,59.0,48.0,67,30.19,10.0,Calm,Calm,-,N/A,,Clear,0,2013-10-14 12:53:00
8:53 AM,63.0,48.0,58,30.20,10.0,Calm,Calm,-,N/A,,Scattered Clouds,0,2013-10-14 13:53:00
9:53 AM,64.9,46.0,50,30.20,10.0,Variable,3.5,-,N/A,,Clear,0,2013-10-14 14:53:00
10:53 AM,66.9,48.0,51,30.19,10.0,East,6.9,-,N/A,,Clear,80,2013-10-14 15:53:00
11:53 AM,70.0,52.0,53,30.17,10.0,Variable,5.8,-,N/A,,Clear,0,2013-10-14 16:53:00
12:53 PM,70.0,53.1,55,30.14,10.0,Variable,3.5,-,N/A,,Clear,0,2013-10-14 17:53:00
1:53 PM,72.0,55.0,55,30.09,10.0,Variable,4.6,-,N/A,,Clear,0,2013-10-14 18:53:00
2:53 PM,72.0,55.0,55,30.07,10.0,East,3.5,-,N/A,,Scattered Clouds,90,2013-10-14 19:53:00
3:53 PM,70.0,57.9,65,30.05,10.0,Calm,Calm,-,0.00,,Mostly Cloudy,0,2013-10-14 20:53:00
4:53 PM,71.1,57.0,61,30.04,10.0,Variable,5.8,-,N/A,,Mostly Cloudy,0,2013-10-14 21:53:00
5:53 PM,71.1,57.0,61,30.02,10.0,East,4.6,-,N/A,,Mostly Cloudy,90,2013-10-14 22:53:00
6:53 PM,70.0,57.9,65,30.03,10.0,East,3.5,-,N/A,,Overcast,100,2013-10-14 23:53:00
7:53 PM,68.0,60.1,76,30.04,10.0,Calm,Calm,-,0.00,,Mostly Cloudy,0,2013-10-15 00:53:00
8:53 PM,64.9,62.1,90,30.04,9.0,Calm,Calm,-,0.01,Rain,Light Rain,0,2013-10-15 01:53:00
9:53 PM,64.9,62.1,90,30.04,9.0,Calm,Calm,-,0.01,,Mostly Cloudy,0,2013-10-15 02:53:00
10:53 PM,66.9,62.1,84,30.04,10.0,Calm,Calm,-,0.00,,Scattered Clouds,0,2013-10-15 03:53:00
11:53 PM,66.9,62.1,84,30.02,10.0,Calm,Calm,-,N/A,,Overcast,0,2013-10-15 04:53:00